User: anonymous   Login
Location: Oshawa
(43.9000°N, 78.8670°W)
Time: 07:26:10
(UTC-05:00)
Language:

SPOT 5 - Orbit

View from above orbital plane
View from above orbital plane
View from above satellite
View from above satellite

Ground track
Ground track

The orbit data is extracted from the following two-line orbital elements,

1 27421U 02021A   14352.10526019  .00000124  00000-0  78120-4 0  2262
2 27421 098.5412 049.1750 0000964 084.5005 001.9655 14.20124849654426
Epoch (UTC): 18 December 2014 02:31:34
Eccentricity: 0.0000964
inclination: 98.5412°
perigee height: 824 km
apogee height: 825 km
right ascension of ascending node: 49.1750°
argument of perigee: 84.5005°
revolutions per day: 14.20124849
mean anomaly at epoch: 1.9655°
orbit number at epoch: 65442

The dashed part of the orbit path shows where the satellite is in the earth's shadow,  

DLR